Temperature
25 25 24 23 26 28 28 28 29 28 28 28 27 27 26 25 24 22 21 21 20 19 19 19 19 19 19 18 18 18 18 18 18 18 18 18 18 18 18 18 18 18 18 18 18 18 18 18 18
25 24 24 26 27 28 28 29 28 28 28 28 27 27 26 25 23 22 21 21 20 19 19 19 19 19 18 18 18 18 18 18 18 18 18 18 18 18 18 18 18 18 18 18 18 18 18 18 18
25 25 26 28 29 28 28 29 29 29 29 28 27 26 25 24 23 22 21 21 20 19 19 19 19 19 18 18 18 18 18 18 18 18 18 18 18 18 18 18 18 18 18 18 18 18 18 18 18
25 26 29 30 29 29 29 29 30 29 28 28 27 25 24 23 23 22 21 21 20 19 19 19 19 19 19 18 18 18 18 18 18 18 18 18 18 18 18 18 18 18 18 17 17 17 18 18 18
26 28 30 30 30 30 30 30 30 29 29 27 26 25 24 23 23 22 22 21 21 20 19 19 19 19 19 18 18 18 18 18 18 18 18 18 18 17 17 17 17 17 18 17 17 17 18 18 18
29 31 30 29 30 30 31 30 30 29 28 27 26 25 24 23 22 22 22 21 21 20 19 19 19 19 19 18 18 18 18 18 18 18 18 18 18 17 17 17 17 17 17 17 17 17 18 18 18
30 31 31 30 30 30 30 30 30 29 29 28 27 25 24 23 23 22 22 22 21 20 19 19 19 19 19 19 18 18 18 18 18 18 18 18 18 18 17 17 17 17 17 17 17 17 18 18 18
32 32 31 31 30 30 31 30 29 29 28 28 27 26 24 23 23 22 22 22 21 21 20 19 19 19 19 19 18 18 18 18 18 18 18 18 18 18 17 17 17 17 17 17 17 18 18 18 18
33 32 31 31 31 31 31 30 29 28 28 28 27 26 24 24 23 22 22 22 21 21 20 20 19 19 19 18 18 18 18 18 18 18 18 18 17 17 17 17 17 17 18 18 18 18 18 18 18
33 31 32 33 32 32 31 30 30 29 28 27 26 25 24 24 23 23 22 22 21 21 20 20 19 19 19 19 18 18 18 18 18 18 18 18 17 17 17 18 18 18 18 18 18 18 18 18 18
34 33 33 33 33 32 32 31 30 30 28 27 26 25 24 24 23 23 22 22 21 21 20 20 19 19 19 19 19 18 18 18 18 18 18 18 18 18 18 18 18 18 18 18 18 18 18 18 18
34 34 34 33 33 32 32 31 30 30 29 27 26 25 25 24 24 23 22 22 21 21 20 20 19 19 19 19 19 18 18 18 18 18 18 18 18 18 18 18 18 18 18 18 18 17 17 17 18
34 34 33 33 33 32 32 31 30 29 28 27 26 26 25 24 24 23 22 21 21 20 20 19 19 19 19 19 19 19 18 18 18 18 18 18 18 18 18 18 18 18 18 18 18 17 17 18 18
34 34 34 33 33 32 32 31 30 29 28 27 27 26 25 24 24 23 22 21 21 20 20 19 19 18 18 18 19 18 18 18 18 18 18 18 18 18 18 18 18 18 18 18 18 18 18 18 18
33 33 33 33 33 33 32 30 31 29 29 28 27 26 25 25 24 23 22 22 21 20 20 19 19 18 18 18 18 18 18 18 18 18 18 18 18 18 18 18 18 18 18 18 18 18 18 18 18
33 32 31 33 34 33 31 29 31 30 29 28 27 26 26 25 24 23 22 21 21 20 19 19 19 19 18 18 18 18 18 18 18 18 18 18 18 18 18 18 18 18 18 18 18 18 18 18 18
32 31 31 32 34 34 32 30 31 30 30 29 28 27 26 25 24 23 22 22 21 20 19 19 19 19 19 18 18 18 18 18 18 18 18 18 18 18 18 18 18 18 18 18 18 18 18 18 18
31 31 32 32 34 34 32 31 32 31 31 30 29 28 27 25 25 24 23 22 21 20 19 19 19 19 19 18 18 18 18 18 18 18 18 18 18 18 18 18 18 18 18 18 18 18 18 18 18
33 32 32 32 34 34 33 32 32 32 31 30 29 28 27 26 25 24 23 22 21 20 19 19 19 19 18 18 18 18 18 18 18 18 18 18 18 18 18 18 18 18 18 18 18 18 18 18 18
33 32 32 33 34 34 33 32 32 32 32 31 30 29 28 26 25 24 23 22 21 20 20 19 19 19 19 19 19 19 19 19 18 18 18 18 18 18 18 18 18 18 18 18 18 18 18 18 18
33 33 32 32 33 33 32 30 30 31 31 31 30 29 28 27 26 24 24 23 22 21 20 20 19 19 19 19 19 19 19 18 19 18 18 18 18 18 18 18 18 18 18 18 18 18 18 18 18
33 34 33 33 32 31 32 28 28 30 30 31 31 30 29 28 26 25 24 23 22 21 20 20 20 19 19 19 19 19 19 19 19 19 18 18 18 18 18 18 18 18 18 18 18 18 18 18 18
34 35 34 33 32 32 32 30 29 29 29 31 31 31 30 29 27 26 25 24 23 22 21 20 20 20 19 19 19 19 19 19 19 19 19 19 18 18 18 18 18 18 18 18 18 18 18 18 18
35 34 33 33 32 30 31 31 29 29 30 31 32 31 30 29 28 26 25 24 23 22 21 21 20 20 19 19 19 19 19 19 19 19 19 19 19 19 19 18 19 18 18 18 18 18 18 18 18
34 33 31 29 29 29 31 31 30 31 32 32 32 31 30 29 28 27 25 24 24 23 22 21 20 20 20 20 19 19 19 19 19 19 19 19 19 19 19 19 19 18 18 18 18 18 18 18 18
34 33 30 29 29 29 30 29 31 32 32 33 32 31 31 29 28 27 26 25 24 23 22 21 21 20 20 20 20 19 19 19 19 19 19 19 19 19 19 19 19 19 18 18 18 18 18 18 18
33 33 33 31 30 29 29 29 30 32 33 33 32 32 31 30 29 27 26 25 24 23 22 22 21 21 20 20 20 20 20 19 19 19 19 19 19 19 19 19 19 19 18 18 18 18 18 18 18
34 34 33 31 29 29 28 28 28 30 31 32 32 32 31 30 29 28 27 26 25 24 23 22 21 21 21 20 20 20 20 20 20 19 19 19 19 19 19 19 19 18 18 18 18 18 18 18 18
33 33 33 32 31 29 28 28 30 29 31 31 32 31 31 30 29 28 27 26 25 24 23 22 22 21 21 20 20 20 20 20 20 19 19 19 19 19 19 19 19 18 18 18 18 18 18 18 18
33 33 32 31 30 30 30 29 32 31 31 31 31 31 30 29 28 27 27 26 25 24 23 23 22 21 21 21 20 20 20 20 20 19 19 19 19 19 19 19 19 19 18 18 18 18 17 17 17
Wind_Speed
9 10 9 5 4 3 13 13 13 12 13 13 13 13 16 15 10 10 9 10 13 14 13 12 11 11 11 11 11 11 12 12 13 13 14 14 14 15 16 17 17 18 18 18 19 18 19 19 19
9 11 8 4 1 9 13 12 13 12 11 11 14 16 17 17 15 12 11 10 13 13 13 12 11 12 11 11 11 11 12 12 13 14 14 14 14 15 17 17 18 18 18 18 18 18 19 18 18
11 13 7 1 8 12 13 12 11 11 10 12 15 15 13 12 13 10 11 11 12 13 14 12 12 12 11 11 11 11 11 12 13 13 14 14 14 15 17 17 18 18 18 18 18 18 17 17 16
7 7 4 5 15 15 12 10 10 11 11 12 13 12 13 13 12 12 12 12 13 13 14 13 12 12 11 11 12 12 11 12 12 13 13 13 14 14 16 17 17 17 17 17 17 17 16 16 15
8 5 3 11 15 13 12 11 11 12 13 15 16 15 14 13 13 12 11 11 11 12 14 14 12 11 11 11 11 11 11 12 13 13 13 13 14 14 15 16 16 16 16 16 16 15 15 14 13
6 3 5 11 13 13 12 11 12 12 13 15 16 16 13 12 11 11 11 11 12 13 14 14 12 12 11 11 11 11 11 12 13 13 12 12 13 14 15 15 15 15 15 15 14 14 13 12 10
7 3 9 12 12 11 11 10 11 11 11 12 14 15 11 11 11 11 10 10 11 12 12 12 12 11 11 11 11 11 11 12 12 12 12 12 13 13 14 14 13 14 14 14 13 12 12 10 9
3 3 9 11 11 11 10 11 12 11 10 9 9 10 11 12 11 11 10 9 10 10 10 10 11 11 10 10 11 12 12 11 11 11 11 11 11 12 13 13 13 12 12 12 12 11 10 9 8
1 5 8 10 11 10 11 13 11 11 11 10 13 15 15 14 13 10 9 9 8 8 7 8 8 8 10 11 12 12 11 11 10 9 9 9 8 10 10 13 13 12 12 11 11 10 9 8 7
6 8 11 12 12 11 12 11 10 11 11 13 15 15 14 13 12 10 9 8 8 7 7 7 7 6 6 9 10 9 9 9 7 7 8 7 6 9 11 13 13 12 11 10 10 9 8 7 6
9 10 10 13 12 12 11 10 10 11 11 13 14 14 13 12 10 10 9 9 8 6 6 7 7 5 5 5 6 5 7 8 8 7 7 7 7 8 10 9 10 10 9 7 8 8 7 7 6
8 9 10 11 11 11 11 11 11 12 12 14 14 13 12 11 10 10 9 9 8 6 6 8 8 6 5 4 4 4 5 5 5 7 6 6 3 3 5 5 7 7 6 5 5 4 4 4 4
6 8 9 10 10 11 11 11 12 13 14 14 14 13 12 10 10 10 9 9 8 6 7 8 8 6 4 3 2 4 4 4 7 7 6 6 4 3 4 3 4 5 6 5 3 3 3 2 2
5 6 8 9 10 9 10 11 12 13 14 13 12 11 11 10 10 10 9 8 7 7 7 7 7 7 5 3 2 3 3 4 5 6 6 5 5 4 3 3 2 3 5 5 4 4 3 2 1
6 5 5 6 9 9 9 8 11 14 13 13 12 10 10 10 10 9 8 7 8 7 7 6 7 7 5 4 3 4 3 5 4 5 6 5 5 5 4 3 2 2 4 5 4 4 3 2 2
3 4 4 5 6 8 6 6 11 14 13 12 12 12 11 9 10 10 9 8 8 7 6 4 6 8 5 4 2 2 3 4 4 6 7 6 6 6 3 3 2 3 3 3 3 2 2 2 2
5 4 4 5 6 8 7 8 12 13 12 12 11 12 12 10 10 10 10 9 8 8 6 4 4 7 5 4 3 3 3 3 3 4 5 6 6 6 4 2 3 3 2 2 3 3 2 2 2
5 4 6 4 5 6 7 9 13 12 12 12 12 12 12 12 11 10 10 10 9 9 7 6 4 5 5 4 3 2 2 3 3 3 3 4 4 4 3 3 3 3 2 2 2 3 2 1 1
5 5 3 3 5 5 6 8 11 12 11 12 12 12 12 12 12 11 10 11 10 9 7 6 5 5 3 3 3 3 3 3 3 4 5 5 4 4 2 2 3 1 2 1 2 2 3 2 2
8 8 6 3 3 3 4 6 7 10 11 11 11 12 13 13 13 12 11 11 11 9 8 7 6 6 4 3 3 3 3 3 3 3 4 5 5 4 4 2 2 2 2 2 1 1 1 1 1
11 7 5 4 2 3 4 3 4 6 8 11 11 12 14 15 15 13 12 11 11 11 10 8 7 6 5 4 3 3 3 2 3 4 4 4 5 5 3 4 2 2 2 3 3 2 2 2 2
9 7 6 7 6 6 4 2 5 6 8 12 12 12 14 15 16 15 13 11 11 11 10 8 7 6 5 5 4 5 5 4 4 4 4 5 5 5 4 4 3 2 1 2 3 3 2 3 3
10 8 7 8 8 9 6 4 6 9 9 12 13 12 13 15 16 16 14 12 12 12 11 9 8 6 5 5 4 4 3 3 4 4 5 5 4 4 4 4 3 2 2 2 1 2 2 2 2
11 9 8 9 9 10 8 5 5 7 7 10 12 12 13 14 15 15 14 13 12 12 11 11 9 7 6 6 5 4 3 2 3 4 4 4 4 4 4 5 4 3 2 2 2 2 3 3 2
13 11 8 8 8 9 8 5 4 9 8 9 12 12 13 14 15 15 14 13 12 12 12 11 10 8 7 6 5 5 4 3 3 3 4 4 3 4 4 4 4 3 3 3 3 3 3 3 3
14 12 10 9 8 7 4 5 3 7 8 9 10 12 14 14 15 15 14 13 12 12 11 11 11 9 8 7 6 5 4 4 3 4 3 4 2 3 5 4 4 3 3 3 2 3 3 3 3
15 13 12 11 11 9 5 3 3 2 5 9 11 12 13 14 15 15 15 14 13 12 11 11 10 9 8 8 7 5 5 5 4 4 5 3 3 4 5 4 4 3 3 2 2 2 2 2 3
16 14 8 10 9 9 7 6 4 3 4 7 9 11 11 12 13 15 14 14 13 13 11 10 10 9 8 8 7 7 6 5 4 4 4 3 3 2 5 5 4 4 3 3 3 3 3 2 2
14 15 12 9 9 8 7 5 6 5 5 5 7 9 11 11 11 11 12 13 13 13 12 11 10 9 8 8 7 6 6 6 5 4 4 4 4 3 4 4 4 4 4 3 3 4 4 4 3
15 16 15 11 9 9 8 4 4 4 4 6 7 8 9 9 10 10 11 11 11 12 12 12 11 11 10 8 7 6 6 6 6 6 5 5 5 5 5 5 4 5 5 4 4 5 4 4 4
Wind_Direction
198 216 220 239 253 75 67 64 62 63 63 59 62 66 62 60 70 93 106 97 100 100 98 90 83 82 79 80 82 83 83 84 84 84 88 91 95 98 102 103 104 105 107 111 114 116 121 122 123
227 225 229 248 22 73 70 67 64 63 74 76 71 72 72 69 82 99 102 100 99 100 98 93 90 87 83 83 87 86 86 87 88 87 88 91 93 100 105 105 105 105 106 107 112 117 122 125 126
248 252 256 222 65 71 72 71 76 74 75 82 77 66 66 79 86 99 108 108 102 102 102 100 98 94 87 85 90 90 88 90 92 92 91 93 95 100 106 107 107 106 106 107 109 117 121 126 127
247 242 231 75 72 72 76 79 84 85 80 78 84 78 73 80 94 105 113 111 109 109 107 105 103 99 94 91 94 93 93 95 98 96 94 94 96 99 106 108 108 108 108 109 109 110 115 121 125
240 261 90 79 79 81 80 80 82 82 82 82 86 92 88 88 100 110 114 113 111 108 108 110 109 106 103 100 100 98 97 98 100 99 98 98 96 99 104 108 109 110 109 109 110 110 114 119 125
259 219 92 86 85 82 81 82 85 85 91 97 100 100 100 108 109 110 107 103 103 104 109 117 118 115 110 108 107 106 104 104 103 102 103 105 103 106 110 110 112 112 110 111 112 112 116 123 133
272 22 83 93 94 89 85 86 86 87 86 93 107 107 113 117 119 113 105 105 105 107 114 126 127 124 119 117 119 117 114 110 110 107 107 109 109 111 115 115 116 116 115 115 118 121 125 134 141
271 56 79 92 98 97 98 89 86 88 80 88 108 111 121 125 121 114 110 104 106 106 111 124 129 133 130 125 129 127 123 121 119 118 119 121 121 119 123 122 120 122 122 123 125 129 135 143 152
32 76 77 89 98 103 105 99 98 98 95 85 84 103 120 126 121 120 113 104 98 100 107 111 118 128 135 134 131 135 132 132 131 130 132 134 136 130 127 124 128 129 130 133 134 137 144 153 168
75 77 78 86 99 107 105 110 113 108 101 94 95 108 124 128 130 126 118 113 107 105 109 109 112 117 127 127 138 144 135 137 144 139 146 145 136 130 125 129 134 137 141 145 151 156 161 172 179
78 84 86 94 101 105 108 108 110 108 109 114 121 125 129 130 132 127 121 116 110 112 105 106 103 105 105 115 139 133 131 139 142 135 137 137 128 133 135 142 146 150 155 163 162 175 184 182 179
86 89 94 97 104 106 104 102 95 94 105 119 128 132 131 133 127 120 117 114 112 104 101 101 102 92 82 90 111 124 128 130 126 133 140 129 122 130 138 143 149 157 160 163 172 188 176 160 161
102 107 108 110 112 106 106 103 103 103 110 120 127 132 134 132 125 119 114 113 118 113 103 98 98 97 91 79 77 110 109 119 123 126 131 133 134 129 127 125 140 155 160 163 167 160 140 138 157
104 105 114 121 116 119 115 115 117 117 121 125 129 133 136 131 130 126 122 122 123 119 111 112 112 108 107 109 89 103 122 120 121 126 131 138 133 126 121 135 148 167 163 159 155 145 140 150 125
133 134 137 142 138 133 124 126 124 130 133 135 137 137 138 137 134 133 130 129 126 121 116 125 127 118 123 126 144 130 133 134 128 129 132 139 133 137 144 152 176 157 147 141 144 135 143 164 153
197 176 172 167 150 136 134 132 136 142 145 144 145 145 143 140 142 140 138 132 129 126 124 133 128 127 127 122 116 111 121 120 130 137 140 145 137 148 162 155 157 155 159 149 142 153 153 167 155
240 193 204 182 166 152 148 143 152 156 153 150 153 151 149 149 148 145 144 141 136 129 130 129 108 124 134 140 134 125 114 122 132 126 132 142 149 157 167 148 139 162 161 151 173 141 150 157 150
247 230 198 188 174 159 152 147 156 164 162 158 160 156 156 156 154 150 149 143 139 136 136 136 132 125 139 143 140 138 138 134 135 130 135 138 147 150 166 144 154 177 155 149 126 126 142 157 176
242 273 236 195 184 174 159 154 161 166 170 165 164 162 161 159 154 154 154 148 147 144 144 147 149 141 148 148 158 166 162 155 148 148 150 151 155 153 162 141 148 176 141 143 159 156 170 184 177
238 250 253 232 191 191 173 167 165 171 175 169 167 165 163 161 156 156 160 157 155 152 153 156 157 155 166 157 164 175 159 158 150 148 149 163 159 161 166 160 176 178 154 161 177 167 170 211 184
244 234 245 242 228 240 224 189 179 174 178 171 173 171 169 166 163 164 168 165 160 158 163 169 164 163 173 167 175 162 150 165 147 152 155 167 168 166 174 163 175 180 176 167 180 190 189 204 225
247 250 249 252 254 257 235 199 193 196 200 180 179 176 172 168 166 169 170 169 166 164 165 160 160 163 169 180 188 180 176 181 162 160 158 164 168 169 173 161 165 184 185 158 196 175 198 195 225
251 253 266 272 268 262 239 235 191 182 211 187 178 178 174 170 167 169 169 169 169 166 164 160 159 165 172 184 189 200 186 178 157 153 156 165 166 169 166 155 161 169 186 180 201 143 212 218 228
252 258 269 273 272 267 255 249 182 178 194 177 174 174 171 167 164 165 165 164 169 168 167 164 161 168 174 186 188 193 200 191 154 159 163 180 170 172 171 161 163 174 187 187 194 205 205 223 235
239 245 249 254 251 261 273 264 175 168 186 177 166 170 165 163 161 160 161 165 169 170 168 164 161 167 176 184 185 185 191 193 181 184 181 194 176 168 166 164 162 180 185 189 189 193 218 218 219
239 240 240 253 258 262 253 260 203 159 169 156 155 164 161 162 161 161 163 163 167 168 164 161 164 170 176 179 179 179 186 195 195 206 202 195 192 161 154 162 172 192 197 195 185 200 208 205 220
242 242 246 255 260 269 259 250 251 175 155 150 153 156 162 164 162 164 166 168 171 170 165 162 162 169 175 177 171 181 193 205 200 188 204 205 187 175 160 170 176 185 201 201 174 204 225 199 217
240 247 249 255 259 259 252 228 219 215 186 162 157 160 163 163 166 166 167 170 169 168 163 163 161 167 170 174 181 185 193 198 200 199 192 192 189 177 165 182 181 182 192 201 198 203 201 207 216
232 242 246 255 261 264 255 226 196 201 207 178 169 165 164 161 158 160 164 166 164 165 166 165 163 168 175 179 186 182 183 191 197 202 192 187 190 182 187 196 191 192 199 205 211 219 206 206 212
238 240 243 246 249 257 266 242 192 195 205 183 169 154 153 149 152 158 160 159 162 167 171 171 172 178 182 181 182 183 184 189 197 198 191 188 188 192 196 196 203 208 205 207 214 228 224 211 213
Height
1476 1476 1476 1479 1478 1477 1481 1478 1475 1476 1477 1480 1481 1482 1486 1489 1495 1508 1509 1508 1509 1508 1508 1507 1507 1506 1506 1505 1505 1505 1505 1505 1505 1505 1505 1506 1506 1506 1507 1507 1509 1510 1512 1514 1516 1519 1521 1525 1528
1476 1477 1479 1478 1478 1486 1486 1478 1479 1479 1480 1482 1483 1486 1490 1495 1500 1505 1508 1510 1510 1510 1509 1509 1508 1508 1507 1507 1507 1507 1507 1507 1507 1508 1508 1508 1509 1508 1509 1510 1512 1514 1515 1517 1519 1521 1524 1528 1531
1476 1478 1479 1473 1475 1484 1487 1479 1479 1480 1481 1483 1487 1491 1495 1500 1504 1507 1510 1511 1511 1511 1510 1510 1510 1509 1509 1508 1508 1508 1509 1509 1510 1510 1510 1511 1511 1512 1513 1514 1516 1517 1519 1521 1522 1525 1528 1531 1534
1477 1478 1474 1472 1478 1478 1479 1478 1479 1481 1484 1485 1488 1495 1501 1504 1507 1509 1511 1512 1512 1513 1512 1512 1511 1511 1511 1510 1510 1510 1511 1511 1512 1512 1513 1513 1514 1514 1515 1517 1519 1521 1523 1524 1526 1528 1530 1533 1536
1478 1475 1471 1476 1478 1477 1477 1479 1481 1482 1485 1489 1493 1499 1505 1508 1509 1511 1512 1513 1514 1514 1513 1513 1513 1513 1513 1513 1513 1512 1513 1513 1514 1514 1515 1516 1517 1518 1519 1521 1522 1524 1526 1528 1530 1532 1534 1536 1538
1475 1468 1475 1483 1481 1478 1478 1480 1483 1485 1488 1491 1496 1501 1507 1510 1511 1513 1514 1515 1515 1515 1515 1514 1514 1514 1514 1514 1515 1515 1515 1515 1516 1517 1518 1519 1520 1521 1522 1524 1526 1528 1530 1532 1534 1536 1537 1539 1542
1473 1467 1473 1478 1482 1482 1481 1482 1484 1487 1489 1492 1496 1502 1508 1511 1513 1514 1515 1516 1517 1517 1516 1516 1516 1516 1516 1516 1516 1517 1517 1518 1519 1520 1521 1522 1523 1524 1526 1528 1529 1531 1533 1535 1537 1538 1540 1542 1544
1468 1467 1474 1476 1481 1483 1482 1484 1487 1489 1492 1495 1496 1501 1508 1512 1513 1515 1517 1518 1518 1519 1518 1518 1518 1518 1517 1517 1518 1518 1519 1520 1521 1523 1524 1525 1526 1528 1529 1531 1532 1534 1536 1538 1539 1541 1543 1544 1547
1465 1471 1477 1476 1479 1481 1481 1485 1489 1492 1494 1496 1498 1502 1508 1512 1514 1516 1517 1518 1519 1520 1520 1520 1520 1519 1519 1520 1520 1520 1521 1522 1524 1525 1527 1528 1529 1530 1532 1533 1535 1537 1538 1540 1542 1544 1545 1547 1549
1464 1474 1474 1470 1473 1477 1481 1484 1488 1491 1495 1499 1503 1507 1510 1512 1515 1516 1518 1519 1520 1521 1521 1521 1521 1521 1522 1522 1522 1522 1523 1525 1526 1528 1529 1530 1531 1533 1534 1536 1538 1539 1541 1543 1545 1546 1547 1549 1550
1466 1470 1469 1471 1474 1477 1481 1484 1487 1490 1495 1500 1505 1508 1511 1513 1515 1517 1518 1520 1521 1521 1522 1522 1522 1522 1523 1524 1524 1525 1526 1527 1528 1530 1531 1532 1533 1535 1537 1538 1540 1542 1543 1545 1546 1548 1549 1550 1552
1467 1468 1470 1472 1475 1478 1481 1484 1487 1491 1496 1501 1505 1508 1511 1514 1516 1518 1519 1521 1522 1522 1523 1522 1523 1523 1524 1525 1526 1527 1528 1529 1531 1532 1533 1534 1535 1537 1539 1540 1542 1543 1545 1546 1548 1549 1551 1552 1553
1468 1469 1471 1474 1476 1478 1482 1485 1489 1494 1498 1502 1506 1509 1512 1514 1517 1519 1520 1522 1522 1523 1523 1523 1523 1523 1524 1525 1527 1528 1530 1531 1532 1534 1535 1536 1537 1539 1540 1542 1543 1545 1546 1548 1549 1551 1552 1553 1554
1468 1469 1471 1473 1476 1479 1482 1486 1489 1495 1499 1503 1507 1510 1512 1515 1517 1519 1521 1522 1523 1523 1524 1524 1524 1524 1525 1526 1527 1529 1531 1532 1534 1535 1536 1537 1539 1540 1542 1543 1544 1546 1548 1549 1550 1551 1552 1554 1555
1468 1472 1473 1472 1474 1477 1481 1488 1489 1494 1498 1502 1506 1510 1512 1515 1517 1519 1521 1523 1523 1524 1524 1525 1525 1525 1526 1527 1529 1530 1532 1533 1535 1536 1537 1538 1540 1541 1543 1544 1545 1547 1549 1550 1551 1552 1553 1554 1555
1470 1477 1483 1472 1471 1475 1483 1495 1488 1493 1496 1500 1504 1508 1512 1515 1517 1519 1521 1522 1523 1524 1524 1525 1526 1526 1527 1528 1529 1531 1533 1534 1536 1537 1538 1539 1541 1542 1543 1545 1546 1547 1549 1550 1551 1552 1553 1554 1555
1475 1485 1486 1475 1468 1470 1478 1489 1486 1490 1493 1498 1502 1506 1510 1514 1517 1519 1521 1522 1523 1524 1525 1526 1526 1527 1527 1529 1530 1532 1533 1535 1536 1537 1538 1539 1541 1543 1544 1545 1546 1548 1549 1550 1551 1552 1553 1554 1555
1484 1481 1479 1477 1467 1468 1475 1480 1482 1486 1489 1494 1499 1503 1508 1512 1515 1518 1520 1522 1523 1524 1525 1526 1527 1527 1528 1530 1531 1532 1534 1535 1536 1537 1538 1539 1541 1542 1544 1545 1546 1548 1549 1550 1551 1552 1553 1554 1554
1471 1475 1476 1472 1464 1467 1472 1477 1479 1482 1486 1490 1496 1500 1505 1509 1513 1517 1519 1521 1523 1524 1525 1526 1527 1528 1529 1530 1531 1532 1534 1535 1536 1537 1538 1539 1541 1542 1543 1545 1546 1547 1548 1549 1550 1551 1552 1553 1554
1468 1476 1475 1470 1462 1465 1472 1476 1475 1479 1483 1487 1492 1497 1502 1507 1511 1515 1518 1520 1522 1523 1524 1525 1527 1528 1529 1530 1531 1533 1534 1536 1536 1537 1538 1539 1541 1542 1543 1544 1545 1546 1547 1548 1549 1550 1551 1552 1553
1466 1469 1471 1472 1464 1465 1473 1483 1480 1479 1481 1485 1489 1493 1498 1503 1508 1512 1516 1519 1520 1522 1523 1525 1526 1527 1529 1530 1531 1533 1534 1535 1537 1537 1538 1539 1540 1541 1542 1544 1545 1546 1547 1547 1548 1549 1550 1551 1552
1469 1460 1462 1466 1474 1478 1476 1501 1489 1480 1481 1481 1485 1489 1493 1499 1504 1509 1513 1516 1519 1521 1522 1524 1525 1526 1528 1529 1531 1533 1534 1535 1536 1537 1538 1539 1540 1541 1542 1543 1544 1545 1545 1546 1547 1548 1549 1550 1551
1459 1455 1459 1465 1472 1476 1475 1490 1490 1480 1483 1478 1480 1484 1489 1495 1500 1506 1510 1514 1517 1519 1521 1522 1524 1525 1527 1528 1530 1532 1534 1535 1536 1537 1538 1539 1540 1540 1541 1542 1543 1544 1544 1545 1546 1547 1547 1548 1549
1452 1457 1462 1466 1473 1489 1477 1483 1491 1480 1476 1473 1476 1481 1486 1491 1497 1503 1508 1512 1515 1518 1520 1521 1522 1524 1526 1527 1529 1531 1532 1534 1535 1536 1537 1538 1539 1540 1541 1541 1542 1543 1543 1544 1544 1545 1545 1546 1547
1454 1468 1487 1496 1498 1495 1474 1478 1479 1467 1467 1467 1472 1478 1483 1489 1494 1500 1505 1509 1513 1516 1518 1520 1521 1523 1525 1526 1528 1529 1531 1532 1534 1535 1537 1538 1539 1539 1540 1541 1541 1542 1542 1542 1543 1543 1543 1544 1544
1455 1464 1489 1505 1504 1491 1481 1486 1472 1460 1462 1465 1470 1475 1481 1486 1492 1497 1502 1506 1510 1513 1516 1518 1519 1521 1523 1525 1526 1528 1530 1532 1533 1534 1536 1537 1538 1538 1539 1540 1540 1540 1541 1541 1541 1541 1542 1542 1543
1456 1459 1458 1473 1483 1494 1490 1483 1470 1460 1461 1463 1468 1473 1478 1484 1489 1495 1500 1504 1508 1511 1514 1516 1518 1520 1522 1524 1525 1527 1529 1530 1532 1533 1534 1535 1536 1537 1538 1538 1538 1539 1539 1539 1540 1540 1540 1541 1541
1447 1450 1459 1472 1490 1500 1495 1491 1486 1472 1465 1464 1467 1472 1477 1482 1487 1492 1497 1501 1505 1509 1512 1514 1516 1518 1520 1522 1524 1526 1527 1529 1531 1532 1533 1534 1535 1536 1536 1536 1537 1537 1537 1538 1538 1538 1538 1539 1539
1451 1454 1456 1462 1468 1489 1500 1492 1468 1468 1463 1464 1466 1470 1475 1480 1485 1490 1495 1499 1503 1506 1509 1512 1514 1517 1519 1521 1522 1524 1526 1527 1529 1530 1531 1532 1533 1533 1534 1534 1535 1535 1536 1536 1536 1536 1537 1537 1537
1444 1448 1453 1469 1472 1471 1480 1484 1458 1461 1462 1462 1465 1469 1474 1479 1484 1488 1493 1497 1501 1505 1508 1510 1513 1515 1517 1519 1520 1522 1524 1525 1527 1528 1528 1529 1530 1531 1531 1532 1532 1533 1534 1534 1534 1535 1535 1535 1536